TimeNDT,TemperatureF,Dew PointF,Humidity,Sea Level PressureIn,VisibilityMPH,Wind Direction,Wind SpeedMPH,Gust SpeedMPH,PrecipitationIn,Events,Conditions,WindDirDegrees,DateUTC
12:30 AM,59.0,57.2,94,30.12,15.0,SW,13.8,19.6,N/A,,Mostly Cloudy,220,2012-10-08 03:00:00
1:30 AM,59.0,59.0,100,30.13,15.0,SW,13.8,-,N/A,,Mostly Cloudy,220,2012-10-08 04:00:00
1:53 AM,60.8,59.0,94,30.14,15.0,SW,11.5,-,N/A,,Mostly Cloudy,230,2012-10-08 04:23:00
2:30 AM,60.8,59.0,94,30.14,15.0,SW,10.4,-,N/A,,Overcast,220,2012-10-08 05:00:00
3:30 AM,60,59,94,30.14,15,SW,10.4,,,,Mostly Cloudy,220,2012-10-08 06:00:00
3:30 AM,60.8,59.0,94,30.14,15.0,SW,9.2,-,N/A,,Mostly Cloudy,220,2012-10-08 06:00:00
4:30 AM,59.0,59.0,100,30.15,15.0,SW,10.4,-,N/A,,Overcast,220,2012-10-08 07:00:00
5:30 AM,59.0,59.0,100,30.16,15.0,SSW,8.1,-,N/A,,Mostly Cloudy,210,2012-10-08 08:00:00
6:30 AM,59.0,59.0,100,30.16,15.0,SW,8.1,-,N/A,,Overcast,230,2012-10-08 09:00:00
7:30 AM,59.0,59.0,100,30.16,15.0,South,9.2,-,N/A,,Overcast,190,2012-10-08 10:00:00
8:02 AM,59.0,59.0,100,30.15,14.0,South,15.0,-,N/A,,Overcast,180,2012-10-08 10:32:00
8:30 AM,60.8,59.0,94,30.16,15.0,South,17.3,23.0,N/A,,Overcast,190,2012-10-08 11:00:00
8:59 AM,60.8,59.0,94,30.16,15.0,SSW,16.1,-,N/A,,Overcast,200,2012-10-08 11:29:00
9:30 AM,61,59,90,30.15,15,SSW,16.1,,,,Overcast,200,2012-10-08 12:00:00
9:30 AM,60.8,59.0,94,30.15,15.0,South,17.3,24.2,N/A,,Overcast,190,2012-10-08 12:00:00
10:30 AM,60.8,59.0,94,30.14,15.0,South,18.4,31.1,N/A,,Overcast,180,2012-10-08 13:00:00
11:22 AM,59.0,59.0,100,30.13,15.0,South,16.1,21.9,N/A,Rain,Light Rain Showers,180,2012-10-08 13:52:00
11:30 AM,59.0,59.0,100,30.13,15.0,South,18.4,-,N/A,Rain,Light Rain Showers,180,2012-10-08 14:00:00
11:41 AM,59.0,59.0,100,30.12,5.0,South,16.1,24.2,N/A,Rain,Light Rain Showers,180,2012-10-08 14:11:00
12:02 PM,59.0,59.0,100,30.11,2.5,South,17.3,29.9,N/A,Rain,Light Rain Showers,180,2012-10-08 14:32:00
12:30 PM,59.0,59.0,100,30.09,1.0,South,17.3,27.6,N/A,Rain,Light Rain Showers,180,2012-10-08 15:00:00
12:41 PM,59.0,59.0,100,30.08,1.5,South,18.4,24.2,N/A,,Overcast,170,2012-10-08 15:11:00
12:57 PM,59.0,59.0,100,30.07,4.0,South,23.0,29.9,N/A,,Overcast,180,2012-10-08 15:27:00
1:30 PM,60.8,59.0,94,30.05,10.0,South,20.7,28.8,N/A,,Overcast,180,2012-10-08 16:00:00
2:15 PM,60.8,59.0,94,30.02,12.0,South,25.3,38.0,N/A,Rain,Light Rain Showers,180,2012-10-08 16:45:00
2:30 PM,60.8,60.8,100,30.02,12.0,South,29.9,36.8,N/A,Rain,Light Rain,180,2012-10-08 17:00:00
2:54 PM,60.8,60.8,100,30.01,15.0,South,24.2,36.8,N/A,,Overcast,180,2012-10-08 17:24:00
3:30 PM,61,61,100,30.01,12,South,21.9,,,Rain,Light Rain,190,2012-10-08 18:00:00
3:30 PM,60.8,60.8,100,30.01,12.0,South,21.9,33.4,N/A,Rain,Light Rain,190,2012-10-08 18:00:00
4:08 PM,62.6,60.8,94,30.00,15.0,South,21.9,29.9,N/A,,Overcast,180,2012-10-08 18:38:00
4:30 PM,62.6,62.6,100,29.99,15.0,South,23.0,31.1,N/A,,Overcast,190,2012-10-08 19:00:00
5:30 PM,64.4,62.6,94,29.98,15.0,SSW,26.5,40.3,N/A,,Overcast,210,2012-10-08 20:00:00
6:30 PM,64.4,62.6,94,29.95,15.0,South,20.7,29.9,N/A,,Overcast,190,2012-10-08 21:00:00
6:55 PM,64.4,62.6,94,29.94,12.0,SSW,21.9,38.0,N/A,,Light Drizzle,200,2012-10-08 21:25:00
7:30 PM,64.4,64.4,100,29.94,12.0,SSW,25.3,33.4,N/A,,Light Drizzle,210,2012-10-08 22:00:00
7:37 PM,64.4,64.4,100,29.94,12.0,SSW,21.9,34.5,N/A,Rain,Light Rain Showers,200,2012-10-08 22:07:00
8:30 PM,64.4,62.6,94,29.95,12.0,WSW,25.3,36.8,N/A,Rain,Light Rain Showers,240,2012-10-08 23:00:00
8:50 PM,64.4,62.6,94,29.94,15.0,SW,21.9,38.0,N/A,,Mostly Cloudy,230,2012-10-08 23:20:00
9:07 PM,62.6,62.6,100,29.94,12.0,WSW,27.6,41.4,N/A,Rain,Light Rain Showers,240,2012-10-08 23:37:00
9:30 PM,63,62,94,29.94,15,WSW,27.6,,,Rain,Light Rain Showers,240,2012-10-09 00:00:00
9:30 PM,62.6,62.6,100,29.94,15.0,WSW,31.1,40.3,N/A,Rain,Light Rain Showers,240,2012-10-09 00:00:00
9:59 PM,60.8,60.8,100,29.96,8.0,WSW,26.5,36.8,N/A,,Light Drizzle,250,2012-10-09 00:29:00
10:19 PM,59.0,57.2,94,29.95,15.0,WSW,24.2,32.2,N/A,,Partly Cloudy,250,2012-10-09 00:49:00
10:30 PM,59.0,57.2,94,29.96,15.0,WSW,21.9,31.1,N/A,,Scattered Clouds,250,2012-10-09 01:00:00
10:34 PM,59.0,57.2,94,29.96,15.0,WSW,21.9,31.1,N/A,,Mostly Cloudy,250,2012-10-09 01:04:00
11:30 PM,55.4,53.6,94,30.01,15.0,WSW,21.9,29.9,N/A,,Overcast,250,2012-10-09 02:00:00